Regional Weather Roundup
Issued by NWS

Home | Current Version | Previous Version | Graphics & Text | Print | Product List | Glossary On
Versions: 1 2 3 4 5 6 7 8 9 10 11 12 13 14 15 16 17 18 19 20 21 22 23 24 25 26 27 28 29 30 31 32 33 34 35 36 37 38 39 40 41 42 43 44 45 46 47 48 49 50
000
ASUS45 KPSR 090310
RWRAZ

ARIZONA HOURLY REGIONAL WEATHER ROUNDUP
NATIONAL WEATHER SERVICE PHOENIX AZ
800 PM MST MON FEB 08 2016

NOTE: FAIR INDICATES FEW OR NO CLOUDS BELOW 12,000 FEET WITH NO
SIGNIFICANT WEATHER AND/OR OBSTRUCTIONS TO VISIBILITY.

AZZ001>003-036-090400-
NORTHWEST ARIZONA

CITY           SKY/WX    TMP DP  RH WIND       PRES   REMARKS
BULLHEAD CITY  CLEAR     72  25  17 N24G32    30.20S
KINGMAN        CLEAR     50  24  36 E12       30.34R
$$

AZZ004>008-015-016-018-090400-
NORTH CENTRAL ARIZONA

CITY           SKY/WX    TMP DP  RH WIND       PRES   REMARKS
GRAND CANYON   PTCLDY    34  21  59 SW3       30.48R
WILLIAMS       CLEAR     41  18  38 VRB5      30.50S
PRESCOTT       CLEAR     45  23  42 CALM      30.36R
FLAGSTAFF      CLEAR     45  17  32 NE15      30.46R
PAYSON         CLEAR     54  16  22 NE10      30.36R
PAGE           CLEAR     41  24  51 CALM      30.47S
$$

AZZ009>014-017-090400-
NORTHEAST ARIZONA

CITY           SKY/WX    TMP DP  RH WIND       PRES   REMARKS
WINSLOW        PTCLDY    37  19  48 SW5       30.42S WCI  33
SAINT JOHNS    PTCLDY    38  20  48 W7        30.41R WCI  33
WINDOW ROCK    PTCLDY    37   0  21 CALM      30.45R
SHOW LOW       PTCLDY    32  19  59 NE8       30.45S WCI  25
$$

AZZ023-090400-
GREATER PHOENIX AREA

CITY           SKY/WX    TMP DP  RH WIND       PRES   REMARKS
PHOENIX        CLEAR     73  26  17 W5        30.11R
BUCKEYE        CLEAR     63  32  31 NW3       30.14S
GLENDALE       CLEAR     70  30  23 W3        30.13R
LUKE AFB       CLEAR     64  35  33 N3        30.11R
DEER VALLEY    CLEAR     66  27  23 NE3       30.13R
SCOTTSDALE     CLEAR     69  28  21 N5        30.15R
MESA-FALCON    CLEAR    N/A N/A N/A N6        30.13R
CHANDLER       CLEAR     72  25  17 W6        30.12R
$$

AZZ027-028-090400-
SOUTHWEST MARICOPA COUNTY AND PINAL COUNTY

CITY           SKY/WX    TMP DP  RH WIND       PRES   REMARKS
CASA GRANDE    CLEAR     64  25  22 N7        30.14R
GILA BEND      FAIR      66  26  22 SE2       30.11R
$$

AZZ503-504-507>509-090400-
SOUTHEAST ARIZONA

CITY           SKY/WX    TMP DP  RH WIND       PRES   REMARKS
TUCSON         CLEAR     64  20  18 W3        30.18R
DAVIS-MONTHAN  CLEAR     61  20  20 E8        30.16R
RYAN FIELD     CLEAR     63  25  23 CALM      30.17R
NOGALES        PTCLDY    61  15  16 N6        30.21R
SIERRA VISTA   PTCLDY    52  17  24 S6        30.27R
DOUGLAS        CLEAR     57  17  21 E16       30.26R
SAFFORD        CLEAR     56  22  26 S6        30.23R
$$

AZZ020-021-025-026-031-090400-
SOUTHWEST ARIZONA

CITY           SKY/WX    TMP DP  RH WIND       PRES   REMARKS
YUMA           CLEAR     72  21  14 N8        30.12R
$$

CAZ031-033-041-043-047-048-061-090400-
SOUTHERN CALIFORNIA

CITY           SKY/WX    TMP DP  RH WIND       PRES   REMARKS
DOWNTOWN L.A.  CLEAR     74  31  20 CALM      30.09R
L.A. AIRPORT   CLEAR     74  29  19 W3        30.09R
SAN DIEGO      CLEAR     71  38  29 S5        30.09R
BURBANK        CLEAR     75  20  12 NW7       30.11R
ONTARIO        CLEAR     76  13   9 E9        30.11S
RIVERSIDE      CLEAR     75  18  11 NE9G23    30.14R
PALM SPRINGS   CLEAR     76  23  14 W6        30.20R
EL CENTRO NAS  CLEAR     65  20  17 W7        30.14S
IMPERIAL       CLEAR     62  28  27 NW3       30.12S
BLYTHE         CLEAR     69  22  16 N10       30.15R
NEEDLES        CLEAR     71  23  16 N15G24    30.20S
$$

NVZ020-UTZ003-090400-
SOUTHERN NEVADA-UTAH

CITY           SKY/WX    TMP DP  RH WIND       PRES   REMARKS
LAS VEGAS      CLEAR     64  26  23 NE7       30.30R
SALT LAKE CITY MOCLDY    32  26  78 N6        30.62F WCI  26
$$

NMZ009-TXZ055-090400-
NEW MEXICO-WEST TEXAS

CITY           SKY/WX    TMP DP  RH WIND       PRES   REMARKS
ALBUQUERQUE    PTCLDY    47  21  35 N8        30.37R
EL PASO        CLEAR     50  17  27 SE8       30.32R
$$


........................KEY........................
SKY/WX - SKY CONDITION/WEATHER
TMP    - TEMPERATURE IN FAHRENHEIT
DP     - DEW POINT IN FAHRENHEIT
RH     - RELATIVE HUMIDITY IN PERCENT
WIND   - DIRECTION AND SPEED IN MILES PER HOUR (MPH)
VRB    - VARIABLE WIND DIRECTION
PRES   - MEAN SEA LEVEL PRESSURE IN INCHES OF MERCURY
         F - FALLING PRESSURE   R - RISING PRESSURE
         S - STEADY PRESSURE
VSB    - VISIBILITY IN MILES
HX     - HEAT INDEX IN FAHRENHEIT
WCI    - WIND CHILL INDEX IN FAHRENHEIT
TC     - TEMPERATURE IN CELSIUS WHICH IS ALSO KNOWN AS
         TEMPERATURE IN CENTIGRADE
AFB    - AIR FORCE BASE
         LUKE AFB IS LUKE AIR FORCE BASE
         DAVIS-MONTHAN IS DAVIS-MONTHAN AIR FORCE BASE
NAS    - NAVAL AIR STATION
         EL CENTRO NAS IS EL CENTRO NAVAL AIR STATION
N/A    - NOT AVAILABLE




USA.gov is the U.S. government's official web portal to all federal, state and local government web resources and services.